[Iaude] MPEC E03: 2005 EO30 [a=1.23,e=0.16,i=14.0,H=23.07]
    mpec at cfa.harvard.edu 
    mpec at cfa.harvard.edu
       
    Fri Mar  1 08:58:34 EST 2024
    
    
  
M.P.E.C. 2024-E03                                 Issued 2024 March 1, 13:57 UT
     The Minor Planet Electronic Circulars contain information on unusual
         minor planets, routine data on comets and natural satellites,
         and occasional editorial announcements.  They are published
    on behalf of Division F of the International Astronomical Union by the
          Minor Planet Center, Smithsonian Astrophysical Observatory,
                          Cambridge, MA 02138, U.S.A.
			  
             Prepared using the Tamkin Foundation Computer Network
                              MPC at CFA.HARVARD.EDU
            URL https://www.minorplanetcenter.net/    ISSN 1523-6714
                                   2005 EO30                                    
                           Revision to MPEC 2005-E34                            
Additional Observations:
     K05E30O 1C2024 03 01.24623308 32 54.481+53 11 15.83         19.24GVEE003703
     K05E30O 1C2024 03 01.25096808 32 52.811+53 10 32.12         18.41GVEE003703
     K05E30O 1C2024 03 01.25333408 32 51.979+53 10 10.88         19.19GVEE003703
     K05E30O 1C2024 03 01.30613408 32 32.300+53 02 10.30               VEE003703
     K05E30O 1C2024 03 01.30707508 32 31.960+53 02 01.20         19.20GVEE003703
     K05E30O KC2024 03 01.30756908 32 29.51 +53 01 25.8          19.1 GVEE003H21
     K05E30O KC2024 03 01.30949708 32 28.85 +53 01 07.9          19.0 GVEE003H21
     K05E30O KC2024 03 01.31142608 32 28.19 +53 00 50.0          19.1 GVEE003H21
     K05E30O KC2024 03 01.31335508 32 27.53 +53 00 31.9          19.1 GVEE003H21
     K05E30O KC2024 03 01.31528308 32 26.88 +53 00 13.9          19.1 GVEE003H21
Observer details:
703 Catalina Sky Survey.  Observer J. B. Fazekas.  Measurers T. Beuden, V. F.
    Carvajal, D. Fay, J. B. Fazekas, D. C. Fuls, A. R. Gibbs, A. D. Grauer, H.
    Groeller, J. K. Hogan, R. A. Kowalski, S. M. Larson, G. J. Leonard, D.
    Rankin, R. L. Seaman, F. C. Shelly, K. W. Wierzchos.  0.68-m Schmidt + 10K
    CCD.
H21 Astronomical Research Observatory, Westfield.  Observer R. Holmes.
    Measurers T. Linder, R. Holmes, L. Horn.  0.76-m f/3.0 astrograph + CCD.
First and last observations above in comparison with prediction:
Residuals in seconds of arc (or zero decimals in degrees), reference and Delta-T
240301 703   48-   44-    240301 H21   48-   44-    MPO781050   -4.71 days
Orbital elements:
2005 EO30                                                Earth MOID = 0.0386 AU
Epoch 2024 Mar. 31.0 TT = JDT 2460400.5                 Veres                   
M   6.05455              (2000.0)            P               Q                  
n   0.72498067     Peri.  192.06748     -0.99864572     +0.00087885             
a   1.2272087      Node   347.62381     +0.03072874     -0.79685667             
e   0.1619885      Incl.   14.04625     -0.04198182     -0.60416775             
P   1.36           H   23.07          G   0.15           U   2                  
Residuals in seconds of arc
050304 704  0.9-  0.5+    050305 246  0.3-  0.4+    050315 474  0.1-  0.1-
050304 704  0.2+  1.4-    050305 246  0.5-  0.8+    240301 703  0.2+  0.3+
050304 704  0.7-  1.1-    050305 246  0.0   0.6-    240301 703  1.0+  0.8-
050304 704  0.2-  0.2-    050305 246  0.9-  0.7+    240301 703  1.5+  0.7-
050304 704  0.1+  0.3-    050307 H06  1.8+  1.8-    240301 703  0.7-  0.0
050305 246  0.3+  0.0     050307 H06  0.1-  1.3+    240301 703  0.7-  0.4-
050305 246  0.4+  1.6+    050307 H06  0.5-  2.8+    240301 H21  0.3+  0.2+
050305 246  0.9-  0.2+    050307 854  0.8+  1.0-    240301 H21  0.3+  0.2+
050305 246  0.1-  0.4+    050307 854  0.2-  1.1-    240301 H21  0.2+  0.4+
050305 246  1.0-  0.0     050315 474  0.2-  0.0     240301 H21  0.2+  0.3+
050305 246  1.4-  0.4+    050315 474  0.6-  0.0     240301 H21  0.2+  0.3+
050305 246  0.1+  0.6-    050315 474 (6.4+  0.8-)
Ephemeris:
2005 EO30                a,e,i = 1.23, 0.16, 14                  q = 1.0284
Date    TT    R. A. (2000) Decl.     Delta      r    Elong.  Phase     V
2024 01 31    12 00 15.9 +74 43 42   0.1858  1.0837   117.6    53.7    21.6
...
2024 02 15    10 26 07.5 +72 58 15   0.1285  1.0574   119.8    54.1    20.7
...
2024 02 23    09 18 55.8 +66 23 21   0.09946 1.0464   122.8    52.6    20.1
...
2024 02 29    08 39 33.1 +56 06 30   0.08029 1.0398   126.0    50.4    19.6
2024 03 01    08 34 12.2 +53 46 55   0.07750 1.0388   126.5    50.0    19.5
2024 03 02    08 29 11.6 +51 15 16   0.07487 1.0379   127.0    49.7    19.4
...
2024 03 08    08 05 34.8 +31 45 09   0.06345 1.0332   128.4    48.9    19.0
...
2024 03 16    07 47 46.7 -00 12 27   0.06443 1.0294   121.0    55.9    19.2
...
2024 03 31    07 38 15.4 -36 55 36   0.1045  1.0300   104.4    69.9    20.7
A. U. Tomatic                (C) Copyright 2024 MPC           M.P.E.C. 2024-E03
    
    
More information about the Iaude
mailing list